User: anonymous   Login
Location: Unspecified
(0.0000°N, 0.0000°E)
Time: 12:04:15
(UTC+00:00)
Language:

USA 198 - Orbit

View from above orbital plane
View from above orbital plane
View from above satellite
View from above satellite

Ground track
Ground track

The orbit data is extracted from the following two-line orbital elements,

1 32378U 07060A   18276.87594342 0.00000000  00000-0  00000-0 0    05
2 32378  62.7133 151.6939 7078881 265.8363  17.8357  2.00614000    07
Epoch (UTC): 03 October 2018 21:01:21
Eccentricity: 0.7078881
inclination: 62.7133°
perigee height: 1379 km
apogee height: 38976 km
right ascension of ascending node: 151.6939°
argument of perigee: 265.8363°
revolutions per day: 2.00614000
mean anomaly at epoch: 17.8357°
orbit number at epoch: 0

The dashed part of the orbit path shows where the satellite is in the earth's shadow,  

DLR